Voltar ao catálogo

FENGYUN 1C DEB

AtivoLEO
NORAD 32311·DEBRIS·🇨🇳 China

Lançado May 10, 1999 de Taiyuan Satellite Launch Center

Loading…

Próximas Passagens (próximas 24 horas)

TLE

ObsoletoSource: Space-Track

Época: Sep 7, 2026, 00:30 UTC

1 32311U 99025CXC 26250.02131265  .00000107  00000-0  21080-3 0  9992
2 32311 101.7234 177.5421 0399348 213.8166 143.6890 13.34198484109141

Acompanhe FENGYUN 1C DEB em tempo real com AllMySat

Download on the App Store